Погода в Гыжег

Россия / Архангельская область     61°57′28″N   48°24′32″E
темп.,
°C
ветер,
м/с
пор.,
м/с
влажн.,
%
обл.,
%
осадки,
мм/ч
давл.,
гПа
погр.,
м
25 февраля, чт
чт2500:00−22ююв279790 0.0 1029174
03:00−21ююв389695 0.0 1026261
06:00−21ююв389596 0.0 1023307
09:00−20ююв499292 0.0 1021350
12:00−16ююв498798 0.0 1019483
15:00−15ююв498998 0.0 1018622
18:00−15ююв3993100 0.1 1017619
21:00−16ююв3994100 0.2 1018598
26 февраля, пт
пт2600:00−17ююв3894100 0.2 1017506
03:00−18ююв3895100 0.1 1017418
06:00−19ююв3996100 0.0 1015437
09:00−19ююв4993100 0.1 1014442
12:00−16ююв4889100 0.1 1012586
15:00−15юв4989100 0.1 1011622
18:00−17юв41194100 0.1 1009588
21:00−19юв31094100 0.1 1009507
27 февраля, сб
сб2700:00−20вюв3996100 0.0 1008407
03:00−21в3897100 0.1 1009331
06:00−22в3897100 0.0 1009281
09:00−21в369596 0.0 1010328
12:00−16в3590100 0.0 1010477
15:00−15всв2590100 0.1 1011496
18:00−17св2297100 0.0 101227
21:00−17св229899 0.1 101421
28 февраля, вс
вс2800:00−20св1210077 0.0 101420
03:00−21св129954 0.0 101520
06:00−22св1110019 0.0 101520
09:00−19вюв119435 0.0 1016106
12:00−13вюв008578 0.0 1017300
15:00−12юз018588 0.0 1016382
18:00−16юз119592 0.0 101720
21:00−18з129779 0.0 101920
1 марта, пн
пн100:00−19зюз229840 0.0 101920
03:00−19юз239847 0.0 101848
06:00−18юз259961 0.0 1017113
09:00−13юз499680 0.1 1015266
12:00−8юз51092100 0.1 1012397
15:00−5юз51194100 0.5 1008508
18:00−3зюз51395100 2.1 1004688
21:000з41098100 3.4 1001561